This demonstration page uses our WeatherBlox Daily Observations layout. Learn more.

Hourly Observations for June 23, 2016

Temp ( °F °C ) Dew Point ( °F °C ) Humidity (%) Winds ( mph kmh ) Pressure ( in mb ) Visibility ( mi km ) Precip ( " mm )
12:15 am 00:15 Clear 64 17.9 57 14.1 79 79 NNW 3 6 29.97 1015 7 11.265408 0 0
12:35 am 00:35 Clear 63 17.3 57 13.9 81 81 N 5 7 29.97 1015 10 16.09344 0 0
12:55 am 00:55 Clear 64 17.6 56 13.6 78 78 NNW 5 7 29.97 1015 10 16.09344 0 0
1:15 am 01:15 Clear 62 16.8 57 13.9 83 83 NW 5 7 29.97 1015 10 16.09344 0 0
1:35 am 01:35 Clear 62 16.6 57 13.8 84 84 NW 5 7 30 1016 10 16.09344 0 0
1:55 am 01:55 Clear 62 16.5 56 13.5 83 83 NW 5 7 29.97 1015 10 16.09344 0 0
2:15 am 02:15 Clear 62 16.8 55 13 78 78 WNW 3 6 30 1016 10 16.09344 0 0
2:35 am 02:35 Clear 60 15.8 55 12.9 83 83 NW 3 6 30 1016 10 16.09344 0 0
2:55 am 02:55 Clear 61 16.2 56 13.1 82 82 NNW 3 6 30 1016 10 16.09344 0 0
3:15 am 03:15 Clear 60 15.6 55 12.9 84 84 Calm 30 1016 10 16.09344 0 0
3:35 am 03:35 Clear 59 15.1 55 12.9 87 87 NNE 6 9 30 1016 10 16.09344 0 0
3:55 am 03:55 Clear 60 15.3 55 12.9 86 86 Calm 30 1016 10 16.09344 0 0
4:15 am 04:15 Clear 60 15.3 55 13 86 86 Calm 30 1016 10 16.09344 0 0
4:35 am 04:35 Clear 59 15 55 13 88 88 NW 3 6 30.03 1017 10 16.09344 0 0
4:55 am 04:55 Clear 59 15.1 55 13 87 87 Calm 30.03 1017 10 16.09344 0 0
5:15 am 05:15 Clear 59 15.2 55 13 87 87 Calm 30.03 1017 10 16.09344 0 0
5:35 am 05:35 Clear 59 15.2 55 13 87 87 Calm 30.03 1017 10 16.09344 0 0
5:55 am 05:55 Clear 59 15.1 56 13.2 89 89 NNE 5 7 30.03 1017 10 16.09344 0 0
6:15 am 06:15 Sunny 60 15.4 55 13 86 86 NE 7 11 30.03 1017 10 16.09344 0 0
6:35 am 06:35 Sunny 59 15.1 55 12.9 87 87 NNE 6 9 30.03 1017 10 16.09344 0 0
6:55 am 06:55 Sunny 60 15.3 55 13 86 86 NNE 6 9 30.06 1018 10 16.09344 0 0
7:15 am 07:15 Sunny 61 16.1 56 13.4 84 84 NE 3 6 30.06 1018 10 16.09344 0 0
7:35 am 07:35 Sunny 62 16.7 56 13.5 82 82 NE 7 11 30.06 1018 10 16.09344 0 0
7:55 am 07:55 Sunny 64 17.6 57 14 80 80 ENE 6 9 30.06 1018 10 16.09344 0 0
8:15 am 08:15 Sunny 65 18.4 56 13.5 73 73 ENE 9 15 30.06 1018 10 16.09344 0 0
8:35 am 08:35 Sunny 67 19.3 56 13.4 69 69 E 9 15 30.06 1018 10 16.09344 0 0
8:55 am 08:55 Sunny 67 19.5 55 12.9 66 66 ENE 12 19 30.06 1018 10 16.09344 0 0
9:15 am 09:15 Sunny 68 20.1 55 12.6 62 62 ENE 10 17 30.06 1018 10 16.09344 0 0
9:35 am 09:35 Sunny 68 20 55 12.7 63 63 ENE 9 15 30.06 1018 10 16.09344 0 0
9:55 am 09:55 Sunny 69 20.6 56 13.1 62 62 ENE 10 17 30.06 1018 10 16.09344 0 0
10:15 am 10:15 Sunny 69 20.5 55 12.5 60 60 NE 10 17 30.06 1018 10 16.09344 0 0
10:35 am 10:35 Sunny 70 21 54 12.4 58 58 ENE 12 19 30.03 1017 10 16.09344 0 0
10:55 am 10:55 Sunny 71 21.6 56 13.1 59 59 NE 9 15 30.03 1017 10 16.09344 0 0
11:15 am 11:15 Sunny 72 22.1 56 13.3 58 58 ENE 12 19 30.03 1017 10 16.09344 0 0
11:35 am 11:35 Sunny 72 22.3 55 13 56 56 ENE 9 15 30.03 1017 10 16.09344 0 0
11:55 am 11:55 Sunny 74 23.1 56 13.5 55 55 ENE 12 19 30.03 1017 10 16.09344 0 0
12:15 pm 12:15 Sunny 74 23.3 56 13.3 54 54 ENE 9 15 30.03 1017 10 16.09344 0 0
12:35 pm 12:35 Sunny 75 23.8 56 13.3 52 52 ENE 10 17 30.03 1017 10 16.09344 0 0
12:55 pm 12:55 Sunny 77 25 57 13.7 50 50 E 10 17 30 1016 10 16.09344 0 0
1:15 pm 13:15 Sunny 78 25.3 57 13.8 49 49 ESE 14 22 29.97 1015 10 16.09344 0 0
1:35 pm 13:35 Sunny 79 26.1 56 13.1 45 45 ESE 9 15 29.97 1015 10 16.09344 0 0
1:55 pm 13:55 Sunny 80 26.6 55 13 43 43 E 13 20 29.97 1015 10 16.09344 0 0
2:15 pm 14:15 Sunny 80 26.5 55 13 43 43 E 12 19 29.97 1015 10 16.09344 0 0
2:35 pm 14:35 Sunny 81 27.3 55 12.9 41 41 E 13 20 29.97 1015 10 16.09344 0 0
2:55 pm 14:55 Sunny 82 27.8 55 12.6 39 39 ESE 12 19 29.94 1014 10 16.09344 0 0
3:15 pm 15:15 Sunny 82 27.8 55 12.9 40 40 SE 12 19 29.91 1013 10 16.09344 0 0
3:35 pm 15:35 Sunny 83 28.2 57 13.7 41 41 SE 12 19 29.91 1013 10 16.09344 0 0
3:55 pm 15:55 Sunny 83 28.5 57 13.8 41 41 ESE 12 19 29.91 1013 10 16.09344 0 0
4:15 pm 16:15 Sunny 85 29.2 58 14.5 41 41 ESE 13 20 29.91 1013 10 16.09344 0 0
4:35 pm 16:35 Sunny 85 29.2 58 14.3 40 40 ESE 13 20 29.91 1013 10 16.09344 0 0
4:55 pm 16:55 Sunny 85 29.5 58 14.3 39 39 SE 10 17 29.88 1012 10 16.09344 0 0
5:15 pm 17:15 Sunny 85 29.5 59 15.1 42 42 SE 10 17 29.88 1012 10 16.09344 0 0
5:35 pm 17:35 Sunny 85 29.5 58 14.6 40 40 SE 14 22 29.88 1012 10 16.09344 0 0
5:55 pm 17:55 Sunny 84 29.1 58 14.3 40 40 SE 14 22 29.88 1012 10 16.09344 0 0
6:15 pm 18:15 Sunny 84 28.7 60 15.4 44 44 SE 10 17 29.88 1012 10 16.09344 0 0
6:35 pm 18:35 Sunny 83 28.6 58 14.7 43 43 SE 10 17 29.88 1012 10 16.09344 0 0
6:55 pm 18:55 Sunny 83 28.3 58 14.4 43 43 SE 10 17 29.85 1011 10 16.09344 0 0
7:15 pm 19:15 Sunny 83 28.1 59 14.9 45 45 ESE 10 17 29.85 1011 10 16.09344 0 0
7:35 pm 19:35 Sunny 82 28 59 15.1 45 45 SE 9 15 29.85 1011 10 16.09344 0 0
7:55 pm 19:55 Sunny 81 27.2 60 15.5 49 49 ESE 9 15 29.85 1011 10 16.09344 0 0
8:15 pm 20:15 Sunny 80 26.4 61 15.9 53 53 ESE 6 9 29.88 1012 10 16.09344 0 0
8:35 pm 20:35 Sunny 76 24.7 62 16.6 61 61 E 5 7 29.91 1013 10 16.09344 0 0
8:55 pm 20:55 Sunny 75 24 61 16.3 62 62 E 5 7 29.91 1013 10 16.09344 0 0
9:15 pm 21:15 Clear 74 23.6 61 16 63 63 E 8 13 29.91 1013 10 16.09344 0 0
9:35 pm 21:35 Clear 72 22.4 61 16.3 69 69 ESE 8 13 29.94 1014 10 16.09344 0 0
9:55 pm 21:55 Clear 73 22.5 61 15.9 66 66 ESE 8 13 29.94 1014 10 16.09344 0 0
10:15 pm 22:15 Clear 73 22.5 60 15.8 66 66 ESE 7 11 29.94 1014 10 16.09344 0 0
10:35 pm 22:35 Clear 72 22 61 16 69 69 ESE 8 13 29.94 1014 10 16.09344 0 0
10:55 pm 22:55 Clear 71 21.5 61 16 71 71 SE 8 13 29.94 1014 10 16.09344 0 0
11:15 pm 23:15 Clear 70 21.3 61 16 72 72 SE 8 13 29.94 1014 10 16.09344 0 0
11:35 pm 23:35 Clear 69 20.8 60 15.8 73 73 SE 7 11 29.94 1014 10 16.09344 0 0
11:55 pm 23:55 Clear 69 20.6 60 15.8 74 74 SE 7 11 29.94 1014 10 16.09344 0 0

Powered by AerisWeather